Regional Weather Roundup
Issued by NWS Sioux Falls, SD

Home | Current Version | Previous Version | Text Only | Print | Product List | Glossary Off
Versions: 1 2 3 4 5 6 7 8 9 10 11 12 13 14 15 16 17 18 19 20 21 22 23 24 25 26 27 28 29 30 31 32 33 34 35 36 37 38 39 40 41 42 43 44 45 46 47 48 49 50

000
ASUS43 KFSD 240410
RWRFSD

WEATHER ROUNDUP FOR SE SOUTH DAKOTA/SW MINNESOTA/NW IOWA
NATIONAL WEATHER SERVICE SIOUX FALLS SD
1000 PM CST THU NOV 23 2017

NOTE: "FAIR" INDICATES FEW OR NO CLOUDS BELOW 12,000 FEET WITH NO
SIGNIFICANT WEATHER AND OR OBSTRUCTIONS TO VISIBILITY.


SDZ038>040-050-052>070-240500-
SOUTHEAST SOUTH DAKOTA

CITY           SKY/WX    TMP DP  RH WIND       PRES   REMARKS
BROOKINGS      CLEAR     45  37  73 S12       29.59F
CHAMBERLAIN    CLEAR     53  40  61 SW6       29.60F
HURON          CLEAR     50  40  68 S10       29.55F
MADISON        FAIR      48  41  76 S10       29.61F
MITCHELL       CLEAR     55  41  59 SW10      29.60F
SIOUX FALLS    CLOUDY    54  42  64 SW9       29.62F
WINNER         FAIR      58  39  49 SW13      29.63F
YANKTON        CLEAR     59  42  53 SW12      29.64F
$$

MNZ071-072-080-081-089-090-097-098-240500-
SOUTHWEST MINNESOTA

CITY           SKY/WX    TMP DP  RH WIND       PRES   REMARKS
FAIRMONT       PTCLDY    45  34  65 S13       29.67F
JACKSON        PTCLDY    45  34  65 S14       29.66F
LUVERNE        PTCLDY    43  34  70 S6        29.64F
MARSHALL       CLEAR     50  37  61 SW20G28   29.56F
MONTEVIDEO     PTCLDY    46  37  71 SW9       29.54F
PIPESTONE      CLEAR     46  37  71 SW12      29.62F
REDWOOD FALLS  CLOUDY    46  34  62 S12       29.58F
WINDOM         CLEAR     46  30  53 S16G24    29.63F
WORTHINGTON    CLOUDY    49  37  63 S16       29.64F
$$

IAZ001>003-012>014-020>022-031-032-NEZ013-014-SDZ071-240500-
NORTHWEST IOWA

CITY           SKY/WX    TMP DP  RH WIND       PRES   REMARKS
CHEROKEE       CLOUDY    51  38  59 S9        29.70F
DENISON        PTCLDY    52  37  58 S14G21    29.76F
ESTHERVILLE    PTCLDY    40  33  76 S13       29.67F
LE MARS        CLOUDY    52  39  62 S14       29.68F
ORANGE CITY    CLOUDY    54  41  62 S13       29.67F
SHELDON        CLOUDY    54  39  58 S15       29.65F
SIOUX CITY     PTCLDY    47  38  71 SE8       29.70F
SPENCER        PTCLDY    49  37  63 S9        29.69F
STORM LAKE     CLOUDY    50  37  62 S14       29.71F
$$

ABBREVIATIONS USED IN REMARKS
   TC - TEMPERATURE IN CELSIUS
  WCI - WIND CHILL INDEX
   HX - HEAT INDEX
  VSB - VISIBILITY





USA.gov is the U.S. government's official web portal to all federal, state and local government web resources and services.